STARLINK-31341, 59155

Orbit data source: Space-Track

STARLINK-31341, 59155 is a payload satellite owned by SpaceX/Seattle (US) in LEO that was launched on Mon, 04 Mar 2024 UTC via an FALCON 9 launch vehicle from the Air Force Eastern Test Range (AFETR). Payload-class satellites include a variety of spacecraft equipped with specific instruments for various scientific and technological missions. These include communications satellites like Starlink; space stations such as the ISS; scientific satellites like the Hubble; Earth observation satellites from companies like Planet Labs, Umbra, and HawkEye 360; GPS; miniature CubeSats for education and research; and military/defense satellites.

Loading next visibility...
Identifier
59155, 2024-044D
Orbit
LEO
Country
Flag of USUS
Related business
Manufacturer
SpaceX/Seattle
Mission
Operational Commercial Communications
Bus & Motor
STARLINK V2M, Unknown motor
Mass
730 kg wet, ~700 kg dry
Launch date (UTC)
2024-03-04 (2 years ago)
Launch vehicle
FALCON 9
Launch site
Air Force Eastern Test Range (AFETR)
Object type
Payload
Rocket body
Debris
Shape & HBR
Box + 2 Pan, 17.7 m
Radar Cross Section
33.884 m², Large (>1 m²)

Expand to show TLE details & history
Last TLE update: 2 days ago

TLE from 2 days ago
0 STARLINK-31341
1 59155U 24044D   26171.48456191  .00000590  00000-0  30954-4 0  9993
2 59155  43.0003 250.2073 0001276 225.3189 134.7559 15.27578175129242
Epoch: 2026-06-20T11:37Z
TLE epoch observation values (Epoch: 2026-06-20T11:37:46.149Z)
Latitude
0.00002°
Longitude
167.06651°
Altitude
483.446 km
Speed
7.625 km/s
True Right ascension
16h 40m 49s
True Declination
0° 00' 00"
Sunlit
Object was in full shadow at epoch
Visualization orbit readout
Latitude
Unknown
Longitude
Unknown
Altitude
Unknown
Speed
Unknown
Apparent Right ascension
Unknown
Apparent Declination
Unknown
Sunlit
N/A
Visualization observer readout
Local Sidereal Time
23:19:44
Azimuth
Unknown
Elevation
Unknown
Doppler factor
Unknown
Orbital elements
Apogee altitude
485.875 km
Perigee altitude
484.124 km
Semi-major axis
6,863.137 km
Eccentricity
0.00013
Inclination
43.0003°
RAAN
250.2073°
Arg. of periapsis
225.3189°
True anomaly
134.76628°
Mean anomaly
134.7559°
Eccentric anomaly
134.76109°
Mean motion
3.81733 °/min
Orbital period
94.31 mins
BSTAR
0.000030954
Loading maneuver chart data...
Computing Atmospheric mass density...
Loading historical data...
Loading historical data...
Loading historical data...
Loading historical data...
Loading historical data...
Loading historical data...
Loading historical data...

Documentation

Showing up to 5 results
|